Voltar ao catálogo

IRIDIUM 33 DEB

AtivoPO
NORAD 34690·DEBRIS·🇺🇸 United States

Lançado Sep 14, 1997 de Baikonur Cosmodrome

Loading…

Próximas Passagens (próximas 24 horas)

TLE

AtualizadoSource: Space-Track

Época: Sep 14, 2026, 12:12 UTC

1 34690U 97051KM  26257.50833698  .00002332  00000-0  52064-3 0  9998
2 34690  86.3716 277.0196 0010334 149.0294   3.9225 14.56407148921066

Acompanhe IRIDIUM 33 DEB em tempo real com AllMySat

Download on the App Store